Flag for Honduras Weather past 2 weeks in Tegucigalpa, Honduras

Now
88 °F

Passing clouds.


Feels Like: 86 °F
Forecast: 70 / 89 °F
Wind: 12 mph from North

Location: Tegucigalpa Airport


UV Index: 10 (Very high)

Visibility: N/A


Pressure: 30.01 "Hg

Humidity: 31%

Dew point: 54 °F

Location of TegucigalpaLocation

Historic Weather in Tegucigalpa

°F

Tegucigalpa temperature yesterday

Maximum temperature yesterday: 90 °F (at 1:00 PM)
Minimum temperature yesterday: 61 °F (at 5:00 AM)
Average temperature yesterday: 78 °F

Past Weeks' High & Low Weather Summary

 TemperatureHumidityPressure
High93 °F (Apr 8, 12:00 PM)94% (Apr 2, 6:00 AM)30.27 "Hg (Apr 2, 6:00 AM)
Low55 °F (Apr 8, 6:00 AM)12% (Apr 8, 3:00 PM)29.89 "Hg (Apr 14, 5:00 PM)
Average75 °F54%30.06 "Hg
* Reported Apr 1 12:00 Noon — Apr 16 12:00 Noon, Tegucigalpa, Weather by CustomWeather, © 2014

Note: Actual official high and low records may vary slightly from our data, if they occured in-between our weather recording intervals... More about our weather records

Advertising

Historic Weather Conditions — Data for Previous 24 hours

 ConditionsComfort  
Time TempWeatherWind HumidityBarometerVisibility
12:00 PM
Apr 16
88 °FPassing clouds.12 mph31%30.01 "HgN/A
11:00 AM84 °FScattered clouds.12 mph40%30.07 "Hg6 mi
10:00 AM81 °FScattered clouds.12 mph45%30.07 "Hg5 mi
9:00 AM79 °FScattered clouds.12 mph54%30.09 "Hg4 mi
8:00 AM75 °FSnow. Scattered clouds.7 mph69%30.09 "Hg2 mi
7:00 AM73 °FScattered clouds.5 mph74%30.09 "Hg2 mi
6:00 AM70 °FSnow. Scattered clouds.7 mph78%30.07 "Hg2 mi
5:00 AM72 °FPassing clouds.5 mph69%30.07 "Hg4 mi
4:00 AM72 °FPassing clouds.5 mph69%30.04 "Hg4 mi
3:00 AM72 °FPassing clouds.9 mph65%30.07 "Hg4 mi
12:00 AM75 °FPassing clouds.9 mph61%30.07 "Hg4 mi
11:00 PM
Apr 15
77 °FPassing clouds.5 mph54%30.09 "Hg4 mi
10:00 PM77 °FPassing clouds.No wind54%30.07 "Hg4 mi
9:00 PM79 °FPassing clouds.9 mph48%30.04 "Hg5 mi
8:00 PM82 °FPassing clouds.12 mph32%30.01 "HgN/A
7:00 PM82 °FPassing clouds.10 mph37%29.98 "Hg4 mi
5:00 PM86 °FPartly sunny.8 mph29%29.92 "Hg5 mi
4:00 PM88 °FPartly sunny.12 mph25%29.92 "Hg6 mi
3:00 PM88 °FPartly sunny.12 mph25%29.92 "Hg6 mi
2:00 PM90 °FScattered clouds.9 mph24%29.95 "Hg6 mi
1:00 PM90 °FScattered clouds.2 mph26%29.98 "Hg5 mi
Weather by CustomWeather, © 2014

See weather overview